(254195) = 2004 RW44 = 2004 RZ344

Discovered at Socorro on 2004-09-08 by LINEAR.

Orbit

Orbit type: Main Belt

Note: WebGL enabled browser required.

epoch2024-03-31.0
epoch JD2460400.5
perihelion date2021-10-24.31328
perihelion JD2459511.81328
argument of perihelion (°)22.24523
ascending node (°)1.04899
inclination (°)4.99983
eccentricity0.1588001
perihelion distance (AU)2.6482982
Tisserand w.r.t. Jupiter3.2
ΔV w.r.t. Earth (km/sec)10.3
semimajor axis (AU)3.1482387
mean anomaly (°)156.80181
mean daily motion (°/day)0.17644220
aphelion distance (AU)3.648
period (years)5.59
P-vector [x]0.91851267
P-vector [y]0.34837538
P-vector [z]0.18700019
Q-vector [x]-0.39538833
Q-vector [y]0.80737686
Q-vector [z]0.43796195
absolute magnitude16.03
phase slope0.15
uncertainty0
referenceMPEC 2024-F14
observations used365
oppositions15
arc length (days)11141
first opposition used1993
last opposition used2024
residual rms (arc-secs)0.83
perturbers coarse indicatorM-v
perturbers precise indicator003Ek
first observation date used1993-09-15.0
last observation date used2024-03-17.0
computer nameMPCLINUX
JD of orbit computation2456465.485338
perihelion JD uncertainty (days)1.0746E-04
argument of perihelion uncertainty (°)6.1293E-05
ascending node uncertainty (°)5.7013E-05
inclination uncertainty (°)7.8497E-06
eccentricity uncertainty 9.1312E-08
perihelion distance uncertainty (AU)2.6935E-07
Minimum Orbit Intersection Distances (in AU)
for orbit epoch: 2460400.5, reference: E2024-G95
Mercury2.31069
Venus1.92657
Earth1.65246
Mars1.21654
Jupiter1.8182
Saturn5.87641
Uranus14.8677
Neptune26.9925

Observations

377 total observations over interval: 1993 09 15.25035 – 2024 03 17.518417
These data are available for download (format description).

Date (UT) J2000 RA J2000 Dec Magn Location Ref
1993 09 15.25035 23 58 24.94 -00 54 55.7 20.0   809 – European Southern Observatory, La Silla MPS 2068941
1993 09 15.27118 23 58 24.10 -00 54 58.7   809 – European Southern Observatory, La Silla MPS 871186
1993 09 15.29201 23 58 23.43 -00 55 03.4   809 – European Southern Observatory, La Silla MPS 2068941
1993 09 20.17287 23 54 31.12 -01 09 31.9   691 – Steward Observatory, Kitt Peak-Spacewatch MPS 286893
1993 09 20.20590 23 54 29.48 -01 09 38.1 19.4 V 691 – Steward Observatory, Kitt Peak-Spacewatch MPS 286893
1993 09 20.23818 23 54 28.01 -01 09 43.1   691 – Steward Observatory, Kitt Peak-Spacewatch MPS 286893
1993 09 22.22049 23 52 52.39 -01 15 35.2 19.7   809 – European Southern Observatory, La Silla MPS 309315
1993 09 22.24132 23 52 51.15 -01 15 38.3   809 – European Southern Observatory, La Silla MPS 309315
1993 09 22.26215 23 52 50.08 -01 15 42.9   809 – European Southern Observatory, La Silla MPS 309315
2004 09 08.22838 23 08 41.88 -07 54 20.4 19.0   704 – Lincoln Laboratory ETS, New Mexico MPS 112853
2004 09 08.23991 23 08 41.35 -07 54 22.6 19.7   704 – Lincoln Laboratory ETS, New Mexico MPS 112853
2004 09 08.25136 23 08 40.72 -07 54 25.2 19.3   704 – Lincoln Laboratory ETS, New Mexico MPS 112853
2004 09 08.26284 23 08 40.14 -07 54 26.0 20.0   704 – Lincoln Laboratory ETS, New Mexico MPS 112853
2004 09 09.18111 23 07 55.94 -07 57 10.0 19.2   704 – Lincoln Laboratory ETS, New Mexico MPS 112853
2004 09 09.19228 23 07 55.48 -07 57 11.4 19.4   704 – Lincoln Laboratory ETS, New Mexico MPS 112853
2004 09 09.20343 23 07 54.90 -07 57 13.8 19.3   704 – Lincoln Laboratory ETS, New Mexico MPS 112853
2004 09 09.21522 23 07 54.30 -07 57 15.9 18.9   704 – Lincoln Laboratory ETS, New Mexico MPS 112853
2004 09 09.22658 23 07 53.69 -07 57 17.5 19.4   704 – Lincoln Laboratory ETS, New Mexico MPS 112853
2004 09 12.31349 23 05 24.85 -08 06 12.8 19.5 V 691 – Steward Observatory, Kitt Peak-Spacewatch MPS 113049
2004 09 12.34149 23 05 23.44 -08 06 17.5 19.4 V 691 – Steward Observatory, Kitt Peak-Spacewatch MPS 113049
2004 09 12.36986 23 05 22.04 -08 06 22.4 19.5 V 691 – Steward Observatory, Kitt Peak-Spacewatch MPS 113049
2004 09 13.29124 23 04 38.17 -08 08 58.9 18.8 R 699 – Lowell Observatory-LONEOS MPC 56111
2004 09 13.31065 23 04 37.05 -08 09 00.6   699 – Lowell Observatory-LONEOS MPC 56111
2004 09 13.33010 23 04 36.11 -08 09 03.8   699 – Lowell Observatory-LONEOS MPC 56111
2004 09 13.34955 23 04 35.09 -08 09 05.9   699 – Lowell Observatory-LONEOS MPC 56111
2004 09 14.31443 23 03 49.22 -08 11 46.0 20.0 R G92 – Jarnac Observatory, Vail MPS 113049
2004 09 14.34899 23 03 47.52 -08 11 52.2 20.0 R G92 – Jarnac Observatory, Vail MPS 113049
2004 09 14.38308 23 03 45.86 -08 11 57.5 20.0 R G92 – Jarnac Observatory, Vail MPS 113049
2004 09 17.22916 23 01 32.39 -08 19 25.8 19.7   704 – Lincoln Laboratory ETS, New Mexico MPS 114438
2004 09 17.24093 23 01 31.75 -08 19 29.1 20.1   704 – Lincoln Laboratory ETS, New Mexico MPS 114438
2004 09 17.25267 23 01 31.26 -08 19 29.3 19.6   704 – Lincoln Laboratory ETS, New Mexico MPS 114438
2004 09 17.26440 23 01 30.72 -08 19 32.0 19.6   704 – Lincoln Laboratory ETS, New Mexico MPS 114438
2004 09 21.23599 22 58 31.01 -08 28 59.1 19.8   704 – Lincoln Laboratory ETS, New Mexico MPS 114438
2004 09 21.26065 22 58 29.79 -08 29 02.5 20.1   704 – Lincoln Laboratory ETS, New Mexico MPS 114438
2004 09 21.27320 22 58 29.23 -08 29 03.7 19.6   704 – Lincoln Laboratory ETS, New Mexico MPS 114438
2004 09 21.28552 22 58 28.72 -08 29 05.6 19.7   704 – Lincoln Laboratory ETS, New Mexico MPS 114438
2004 10 08.11779 22 48 23.03 -08 51 22.2 20.7 V 691 – Steward Observatory, Kitt Peak-Spacewatch MPC 56111
2004 10 08.13507 22 48 22.56 -08 51 22.8 20.6 V 691 – Steward Observatory, Kitt Peak-Spacewatch MPC 56111
2004 10 08.15202 22 48 22.09 -08 51 22.9 20.7 V 691 – Steward Observatory, Kitt Peak-Spacewatch MPC 56111
2004 10 15.18713 22 45 52.13 -08 50 23.1 19.1 R G96 – Mt. Lemmon Survey MPS 152083
2004 10 15.19237 22 45 52.02 -08 50 23.7 19.9 R G96 – Mt. Lemmon Survey MPS 152083
2004 10 15.19762 22 45 51.96 -08 50 23.4 20.4 R G96 – Mt. Lemmon Survey MPS 152083
2004 10 15.20287 22 45 51.89 -08 50 23.1 20.4 R G96 – Mt. Lemmon Survey MPS 152083
2005 12 29.29260 06 44 30.47 +30 32 46.6 20.1   704 – Lincoln Laboratory ETS, New Mexico MPS 343719
2005 12 29.30579 06 44 29.60 +30 32 48.3 20.1   704 – Lincoln Laboratory ETS, New Mexico MPS 343719
2005 12 29.31911 06 44 28.79 +30 32 49.4 19.9   704 – Lincoln Laboratory ETS, New Mexico MPS 343719
2007 02 17.35067 11 43 52.85 +03 30 23.0   691 – Steward Observatory, Kitt Peak-Spacewatch MPS 200371
2007 02 17.36881 11 43 52.17 +03 30 26.1   691 – Steward Observatory, Kitt Peak-Spacewatch MPS 200371
2007 02 17.38696 11 43 51.52 +03 30 30.0   691 – Steward Observatory, Kitt Peak-Spacewatch MPS 200371
2007 02 21.37064 11 41 22.47 +03 43 23.2 21.0 V 691 – Steward Observatory, Kitt Peak-Spacewatch MPS 200371
2007 02 21.39225 11 41 21.63 +03 43 27.9 20.9 V 691 – Steward Observatory, Kitt Peak-Spacewatch MPS 200371
2007 02 21.41041 11 41 20.91 +03 43 31.5 21.1 V 691 – Steward Observatory, Kitt Peak-Spacewatch MPS 200371
2007 04 16.20486 11 05 42.54 +06 32 24.3 21.0 V G96 – Mt. Lemmon Survey MPS 206895
2007 04 16.21142 11 05 42.36 +06 32 24.7 20.7 V G96 – Mt. Lemmon Survey MPS 206895
2007 04 16.21800 11 05 42.18 +06 32 25.2 22.0 V G96 – Mt. Lemmon Survey MPS 206895
2007 04 16.22456 11 05 42.03 +06 32 26.0 21.2 V G96 – Mt. Lemmon Survey MPS 206895
2009 06 27.458903 19 49 01.666 -28 11 57.59 19.99 r F51 – Pan-STARRS 1, Haleakala MPS 291715
2009 06 27.471202 19 49 01.111 -28 11 59.33 20.24 r F51 – Pan-STARRS 1, Haleakala MPS 291715
2010 07 29.520356 02 19 04.29 +15 12 14.3   C51 – WISE MPS 341756
2010 07 29.652661 02 19 11.88 +15 13 06.4   C51 – WISE MPS 341756
2010 07 29.784964 02 19 19.62 +15 13 58.8   C51 – WISE MPS 341756
2010 07 29.917269 02 19 27.23 +15 14 52.9   C51 – WISE MPS 341756
2010 07 30.049572 02 19 34.80 +15 15 45.3   C51 – WISE MPS 341756
2010 07 30.115660 02 19 38.62 +15 16 12.5   C51 – WISE MPS 341756
2010 07 30.18188 02 19 42.45 +15 16 38.4   C51 – WISE MPS 341756
2010 07 30.247964 02 19 46.22 +15 17 04.4   C51 – WISE MPS 341756
2010 07 30.314179 02 19 50.05 +15 17 30.4   C51 – WISE MPS 341756
2010 07 30.512572 02 20 01.38 +15 18 51.2   C51 – WISE MPS 341756
2010 07 30.644875 02 20 08.92 +15 19 41.6   C51 – WISE MPS 341756
2010 07 30.77718 02 20 16.47 +15 20 34.1   C51 – WISE MPS 341757
2010 07 30.909483 02 20 23.94 +15 21 27.6   C51 – WISE MPS 341757
2010 10 02.42617 02 39 38.08 +19 28 36.2 19.4   704 – Lincoln Laboratory ETS, New Mexico MPS 349430
2010 10 02.43918 02 39 37.68 +19 28 36.4 19.6   704 – Lincoln Laboratory ETS, New Mexico MPS 349430
2010 10 02.45229 02 39 37.27 +19 28 36.4 20.0   704 – Lincoln Laboratory ETS, New Mexico MPS 349430
2010 10 02.46534 02 39 36.87 +19 28 37.5 19.8   704 – Lincoln Laboratory ETS, New Mexico MPS 349430
2010 10 08.399640 02 36 20.798 +19 29 46.76 20.08 w F51 – Pan-STARRS 1, Haleakala MPS 366848
2010 10 08.417780 02 36 20.090 +19 29 46.65 20.07 w F51 – Pan-STARRS 1, Haleakala MPS 366848
2010 10 08.455106 02 36 18.631 +19 29 46.39 20.05 w F51 – Pan-STARRS 1, Haleakala MPS 366848
2010 10 11.41170 02 34 23.23 +19 28 40.2 19.5 V G96 – Mt. Lemmon Survey MPS 351167
2010 10 11.41873 02 34 22.94 +19 28 40.0 19.5 V G96 – Mt. Lemmon Survey MPS 351167
2010 10 11.42571 02 34 22.62 +19 28 39.8 19.5 V G96 – Mt. Lemmon Survey MPS 351167
2010 10 11.43267 02 34 22.33 +19 28 39.6 19.6 V G96 – Mt. Lemmon Survey MPS 351167
2010 10 12.565007 02 33 35.461 +19 27 58.37 19.94 r F51 – Pan-STARRS 1, Haleakala MPS 366848
2010 10 12.575971 02 33 34.992 +19 27 57.81 20.05 r F51 – Pan-STARRS 1, Haleakala MPS 366848
2010 10 13.28639 02 33 05.18 +19 27 26.7 20.0   704 – Lincoln Laboratory ETS, New Mexico MPS 351167
2010 10 13.30028 02 33 04.64 +19 27 25.1 19.9   704 – Lincoln Laboratory ETS, New Mexico MPS 351167
2010 10 13.31404 02 33 03.96 +19 27 25.5 20.0   704 – Lincoln Laboratory ETS, New Mexico MPS 351167
2010 10 13.32774 02 33 03.28 +19 27 24.3 19.8   704 – Lincoln Laboratory ETS, New Mexico MPS 351167
